Year,Month,Day,Hour,Minute,Value (Times are PST for temperature in C)
2008,01,28,00,00,-2.70
2008,01,28,00,01,-2.70
2008,01,28,00,02,-2.70
2008,01,28,00,03,-2.70
2008,01,28,00,04,-2.70
2008,01,28,00,05,-2.70
2008,01,28,00,06,-2.70
2008,01,28,00,07,-2.70
2008,01,28,00,08,-2.70
2008,01,28,00,09,-2.70
2008,01,28,00,10,-2.70
2008,01,28,00,11,-2.70
2008,01,28,00,12,-2.60
2008,01,28,00,13,-2.60
2008,01,28,00,14,-2.60
2008,01,28,00,15,-2.60
2008,01,28,00,16,-2.60
2008,01,28,00,17,-2.60
2008,01,28,00,18,-2.60
2008,01,28,00,19,-2.60
2008,01,28,00,20,-2.60
2008,01,28,00,21,-2.60
2008,01,28,00,22,-2.60
2008,01,28,00,23,-2.50
2008,01,28,00,24,-2.50
2008,01,28,00,25,-2.50
2008,01,28,00,26,-2.50
2008,01,28,00,27,-2.50
2008,01,28,00,28,-2.50
2008,01,28,00,29,-2.50
2008,01,28,00,30,-2.50
2008,01,28,00,31,-2.50
2008,01,28,00,32,-2.40
2008,01,28,00,33,-2.40
2008,01,28,00,34,-2.40
2008,01,28,00,35,-2.40
2008,01,28,00,36,-2.40
2008,01,28,00,37,-2.30
2008,01,28,00,38,-2.30
2008,01,28,00,39,-2.30
2008,01,28,00,40,-2.30
2008,01,28,00,41,-2.30
2008,01,28,00,42,-2.30
2008,01,28,00,43,-2.30
2008,01,28,00,44,-2.30
2008,01,28,00,45,-2.30
2008,01,28,00,46,-2.30
2008,01,28,00,47,-2.20
2008,01,28,00,48,-2.20
2008,01,28,00,49,-2.20
2008,01,28,00,50,-2.20
2008,01,28,00,51,-2.20
2008,01,28,00,52,-2.20
2008,01,28,00,53,-2.20
2008,01,28,00,54,-2.20
2008,01,28,00,55,-2.20
2008,01,28,00,56,-2.20
2008,01,28,00,57,-2.20
2008,01,28,00,58,-2.20
2008,01,28,00,59,-2.20
2008,01,28,01,00,-2.20
2008,01,28,01,01,-2.20
2008,01,28,01,02,-2.20
2008,01,28,01,03,-2.20
2008,01,28,01,04,-2.20
2008,01,28,01,05,-2.20
2008,01,28,01,06,-2.20
2008,01,28,01,07,-2.20
2008,01,28,01,08,-2.20
2008,01,28,01,09,-2.20
2008,01,28,01,10,-2.20
2008,01,28,01,11,-2.20
2008,01,28,01,12,-2.20
2008,01,28,01,13,-2.20
2008,01,28,01,14,-2.20
2008,01,28,01,15,-2.20
2008,01,28,01,16,-2.30
2008,01,28,01,17,-2.30
2008,01,28,01,18,-2.30
2008,01,28,01,19,-2.30
2008,01,28,01,20,-2.30
2008,01,28,01,21,-2.30
2008,01,28,01,22,-2.30
2008,01,28,01,23,-2.30
2008,01,28,01,24,-2.30
2008,01,28,01,25,-2.40
2008,01,28,01,26,-2.40
2008,01,28,01,27,-2.40
2008,01,28,01,28,-2.40
2008,01,28,01,29,-2.40
2008,01,28,01,30,-2.50
2008,01,28,01,31,-2.50
2008,01,28,01,32,-2.50
2008,01,28,01,33,-2.60
2008,01,28,01,34,-2.60
2008,01,28,01,35,-2.60
2008,01,28,01,36,-2.60
2008,01,28,01,37,-2.60
2008,01,28,01,38,-2.60
2008,01,28,01,39,-2.60
2008,01,28,01,40,-2.60
2008,01,28,01,41,-2.60
2008,01,28,01,42,-2.70
2008,01,28,01,43,-2.70
2008,01,28,01,44,-2.70
2008,01,28,01,45,-2.70
2008,01,28,01,46,-2.70
2008,01,28,01,47,-2.70
2008,01,28,01,48,-2.70
2008,01,28,01,49,-2.70
2008,01,28,01,50,-2.70
2008,01,28,01,51,-2.70
2008,01,28,01,52,-2.70
2008,01,28,01,53,-2.70
2008,01,28,01,54,-2.70
2008,01,28,01,55,-2.70
2008,01,28,01,56,-2.70
2008,01,28,01,57,-2.70
2008,01,28,01,58,-2.70
2008,01,28,01,59,-2.80
2008,01,28,02,00,-2.80
2008,01,28,02,01,-2.80
2008,01,28,02,02,-2.80
2008,01,28,02,03,-2.80
2008,01,28,02,04,-2.80
2008,01,28,02,05,-2.80
2008,01,28,02,06,-2.80
2008,01,28,02,07,-2.80
2008,01,28,02,08,-2.80
2008,01,28,02,09,-2.90
2008,01,28,02,10,-2.90
2008,01,28,02,11,-2.90
2008,01,28,02,12,-2.90
2008,01,28,02,13,-2.90
2008,01,28,02,14,-2.90
2008,01,28,02,15,-2.90
2008,01,28,02,16,-2.90
2008,01,28,02,17,-2.90
2008,01,28,02,18,-2.90
2008,01,28,02,19,-2.90
2008,01,28,02,20,-2.80
2008,01,28,02,21,-2.80
2008,01,28,02,22,-2.90
2008,01,28,02,23,-2.80
2008,01,28,02,24,-2.80
2008,01,28,02,25,-2.80
2008,01,28,02,26,-2.80
2008,01,28,02,27,-2.80
2008,01,28,02,28,-2.80
2008,01,28,02,29,-2.80
2008,01,28,02,30,-2.80
2008,01,28,02,31,-2.80
2008,01,28,02,32,-2.80
2008,01,28,02,33,-2.80
2008,01,28,02,34,-2.70
2008,01,28,02,35,-2.70
2008,01,28,02,36,-2.70
2008,01,28,02,37,-2.70
2008,01,28,02,38,-2.70
2008,01,28,02,39,-2.70
2008,01,28,02,40,-2.70
2008,01,28,02,41,-2.70
2008,01,28,02,42,-2.70
2008,01,28,02,43,-2.70
2008,01,28,02,44,-2.70
2008,01,28,02,45,-2.70
2008,01,28,02,46,-2.70
2008,01,28,02,47,-2.70
2008,01,28,02,48,-2.70
2008,01,28,02,49,-2.70
2008,01,28,02,50,-2.70
2008,01,28,02,51,-2.70
2008,01,28,02,52,-2.70
2008,01,28,02,53,-2.70
2008,01,28,02,54,-2.70
2008,01,28,02,55,-2.60
2008,01,28,02,56,-2.70
2008,01,28,02,57,-2.60
2008,01,28,02,58,-2.60
2008,01,28,02,59,-2.60
2008,01,28,03,00,-2.60
2008,01,28,03,01,-2.60
2008,01,28,03,02,-2.60
2008,01,28,03,03,-2.60
2008,01,28,03,04,-2.60
2008,01,28,03,05,-2.60
2008,01,28,03,06,-2.60
2008,01,28,03,07,-2.60
2008,01,28,03,08,-2.60
2008,01,28,03,09,-2.60
2008,01,28,03,10,-2.60
2008,01,28,03,11,-2.60
2008,01,28,03,12,-2.60
2008,01,28,03,13,-2.60
2008,01,28,03,14,-2.60
2008,01,28,03,15,-2.60
2008,01,28,03,16,-2.60
2008,01,28,03,17,-2.60
2008,01,28,03,18,-2.60
2008,01,28,03,19,-2.60
2008,01,28,03,20,-2.60
2008,01,28,03,21,-2.60
2008,01,28,03,22,-2.60
2008,01,28,03,23,-2.60
2008,01,28,03,24,-2.60
2008,01,28,03,25,-2.60
2008,01,28,03,26,-2.70
2008,01,28,03,27,-2.70
2008,01,28,03,28,-2.70
2008,01,28,03,29,-2.70
2008,01,28,03,30,-2.70
2008,01,28,03,31,-2.70
2008,01,28,03,32,-2.70
2008,01,28,03,33,-2.70
2008,01,28,03,34,-2.70
2008,01,28,03,35,-2.70
2008,01,28,03,36,-2.70
2008,01,28,03,37,-2.70
2008,01,28,03,38,-2.60
2008,01,28,03,39,-2.60
2008,01,28,03,40,-2.60
2008,01,28,03,41,-2.60
2008,01,28,03,42,-2.60
2008,01,28,03,43,-2.60
2008,01,28,03,44,-2.60
2008,01,28,03,45,-2.60
2008,01,28,03,46,-2.60
2008,01,28,03,47,-2.60
2008,01,28,03,48,-2.60
2008,01,28,03,49,-2.60
2008,01,28,03,50,-2.60
2008,01,28,03,51,-2.70
2008,01,28,03,52,-2.70
2008,01,28,03,53,-2.70
2008,01,28,03,54,-2.70
2008,01,28,03,55,-2.70
2008,01,28,03,56,-2.70
2008,01,28,03,57,-2.70
2008,01,28,03,58,-2.70
2008,01,28,03,59,-2.60
2008,01,28,04,00,-2.60
2008,01,28,04,01,-2.60
2008,01,28,04,02,-2.60
2008,01,28,04,03,-2.60
2008,01,28,04,04,-2.60
2008,01,28,04,05,-2.60
2008,01,28,04,06,-2.60
2008,01,28,04,07,-2.60
2008,01,28,04,08,-2.60
2008,01,28,04,09,-2.60
2008,01,28,04,10,-2.60
2008,01,28,04,11,-2.60
2008,01,28,04,12,-2.60
2008,01,28,04,13,-2.60
2008,01,28,04,14,-2.60
2008,01,28,04,15,-2.60
2008,01,28,04,16,-2.60
2008,01,28,04,17,-2.50
2008,01,28,04,18,-2.60
2008,01,28,04,19,-2.50
2008,01,28,04,20,-2.60
2008,01,28,04,21,-2.60
2008,01,28,04,22,-2.60
2008,01,28,04,23,-2.60
2008,01,28,04,24,-2.60
2008,01,28,04,25,-2.60
2008,01,28,04,26,-2.60
2008,01,28,04,27,-2.60
2008,01,28,04,28,-2.60
2008,01,28,04,29,-2.60
2008,01,28,04,30,-2.60
2008,01,28,04,31,-2.60
2008,01,28,04,32,-2.60
2008,01,28,04,33,-2.60
2008,01,28,04,34,-2.60
2008,01,28,04,35,-2.60
2008,01,28,04,36,-2.70
2008,01,28,04,37,-2.60
2008,01,28,04,38,-2.60
2008,01,28,04,39,-2.60
2008,01,28,04,40,-2.60
2008,01,28,04,41,-2.60
2008,01,28,04,42,-2.60
2008,01,28,04,43,-2.60
2008,01,28,04,44,-2.60
2008,01,28,04,45,-2.60
2008,01,28,04,46,-2.60
2008,01,28,04,47,-2.60
2008,01,28,04,48,-2.60
2008,01,28,04,49,-2.60
2008,01,28,04,50,-2.60
2008,01,28,04,51,-2.60
2008,01,28,04,52,-2.60
2008,01,28,04,53,-2.60
2008,01,28,04,54,-2.60
2008,01,28,04,55,-2.60
2008,01,28,04,56,-2.60
2008,01,28,04,57,-2.60
2008,01,28,04,58,-2.70
2008,01,28,04,59,-2.70
2008,01,28,05,00,-2.70
2008,01,28,05,01,-2.70
2008,01,28,05,02,-2.70
2008,01,28,05,03,-2.70
2008,01,28,05,04,-2.70
2008,01,28,05,05,-2.70
2008,01,28,05,06,-2.70
2008,01,28,05,07,-2.70
2008,01,28,05,08,-2.80
2008,01,28,05,09,-2.80
2008,01,28,05,10,-2.80
2008,01,28,05,11,-2.80
2008,01,28,05,12,-2.80
2008,01,28,05,13,-2.80
2008,01,28,05,14,-2.80
2008,01,28,05,15,-2.80
2008,01,28,05,16,-2.80
2008,01,28,05,17,-2.90
2008,01,28,05,18,-2.90
2008,01,28,05,19,-2.90
2008,01,28,05,20,-2.90
2008,01,28,05,21,-3.00
2008,01,28,05,22,-3.00
2008,01,28,05,23,-3.00
2008,01,28,05,24,-3.10
2008,01,28,05,25,-3.10
2008,01,28,05,26,-3.10
2008,01,28,05,27,-3.10
2008,01,28,05,28,-3.10
2008,01,28,05,29,-3.20
2008,01,28,05,30,-3.20
2008,01,28,05,31,-3.20
2008,01,28,05,32,-3.20
2008,01,28,05,33,-3.20
2008,01,28,05,34,-3.20
2008,01,28,05,35,-3.20
2008,01,28,05,36,-3.30
2008,01,28,05,37,-3.30
2008,01,28,05,38,-3.30
2008,01,28,05,39,-3.30
2008,01,28,05,40,-3.30
2008,01,28,05,41,-3.40
2008,01,28,05,42,-3.40
2008,01,28,05,43,-3.40
2008,01,28,05,44,-3.40
2008,01,28,05,45,-3.40
2008,01,28,05,46,-3.40
2008,01,28,05,47,-3.50
2008,01,28,05,48,-3.50
2008,01,28,05,49,-3.50
2008,01,28,05,50,-3.50
2008,01,28,05,51,-3.50
2008,01,28,05,52,-3.50
2008,01,28,05,53,-3.60
2008,01,28,05,54,-3.60
2008,01,28,05,55,-3.60
2008,01,28,05,56,-3.60
2008,01,28,05,57,-3.70
2008,01,28,05,58,-3.70
2008,01,28,05,59,-3.70
2008,01,28,06,00,-3.70
2008,01,28,06,01,-3.70
2008,01,28,06,02,-3.70
2008,01,28,06,03,-3.80
2008,01,28,06,04,-3.80
2008,01,28,06,05,-3.80
2008,01,28,06,06,-3.80
2008,01,28,06,07,-3.80
2008,01,28,06,08,-3.80
2008,01,28,06,09,-3.80
2008,01,28,06,10,-3.80
2008,01,28,06,11,-3.80
2008,01,28,06,12,-3.80
2008,01,28,06,13,-3.80
2008,01,28,06,14,-3.80
2008,01,28,06,15,-3.80
2008,01,28,06,16,-3.80
2008,01,28,06,17,-3.80
2008,01,28,06,18,-3.80
2008,01,28,06,19,-3.80
2008,01,28,06,20,-3.80
2008,01,28,06,21,-3.80
2008,01,28,06,22,-3.80
2008,01,28,06,23,-3.80
2008,01,28,06,24,-3.80
2008,01,28,06,25,-3.80
2008,01,28,19,09,0.60
2008,01,28,19,10,0.60
2008,01,28,19,11,0.60
2008,01,28,19,12,0.60
2008,01,28,19,13,0.50
2008,01,28,19,14,0.50
2008,01,28,19,15,0.50
2008,01,28,19,16,0.50
2008,01,28,19,17,0.50
2008,01,28,19,18,0.40
2008,01,28,19,19,0.40
2008,01,28,19,20,0.40
2008,01,28,19,21,0.40
2008,01,28,19,22,0.40
2008,01,28,19,23,0.40
2008,01,28,19,24,0.40
2008,01,28,19,25,0.40
2008,01,28,19,26,0.40
2008,01,28,19,27,0.40
2008,01,28,19,28,0.40
2008,01,28,19,29,0.40
2008,01,28,19,30,0.40
2008,01,28,19,31,0.40
2008,01,28,19,32,0.40
2008,01,28,19,33,0.40
2008,01,28,19,34,0.40
2008,01,28,19,35,0.40
2008,01,28,19,36,0.40
2008,01,28,19,37,0.40
2008,01,28,19,38,0.40
2008,01,28,19,39,0.40
2008,01,28,19,40,0.40
2008,01,28,19,41,0.40
2008,01,28,19,42,0.40
2008,01,28,19,43,0.40
2008,01,28,19,44,0.40
2008,01,28,19,45,0.40
2008,01,28,19,46,0.40
2008,01,28,19,47,0.40
2008,01,28,19,48,0.40
2008,01,28,19,49,0.40
2008,01,28,19,50,0.40
2008,01,28,19,51,0.40
2008,01,28,19,52,0.40
2008,01,28,19,53,0.40
2008,01,28,19,54,0.40
2008,01,28,19,55,0.40
2008,01,28,19,56,0.40
2008,01,28,19,57,0.40
2008,01,28,19,58,0.40
2008,01,28,19,59,0.40
2008,01,28,20,00,0.30
2008,01,28,20,01,0.30
2008,01,28,20,02,0.30
2008,01,28,20,03,0.30
2008,01,28,20,04,0.30
2008,01,28,20,05,0.30
2008,01,28,20,06,0.30
2008,01,28,20,07,0.30
2008,01,28,20,08,0.30
2008,01,28,20,09,0.30
2008,01,28,20,10,0.20
2008,01,28,20,11,0.20
2008,01,28,20,12,0.20
2008,01,28,20,13,0.20
2008,01,28,20,14,0.20
2008,01,28,20,15,0.20
2008,01,28,20,16,0.20
2008,01,28,20,17,0.20
2008,01,28,20,18,0.20
2008,01,28,20,19,0.20
2008,01,28,20,20,0.20
2008,01,28,20,21,0.20
2008,01,28,20,22,0.10
2008,01,28,20,23,0.10
2008,01,28,20,24,0.10
2008,01,28,20,25,0.10
2008,01,28,20,26,0.10
2008,01,28,20,27,0.10
2008,01,28,20,28,0.10
2008,01,28,20,29,0.10
2008,01,28,20,30,0.10
2008,01,28,20,31,0.10
2008,01,28,20,32,0.10
2008,01,28,20,33,0.10
2008,01,28,20,34,0.10
2008,01,28,20,35,0.10
2008,01,28,20,36,0.00
2008,01,28,20,37,0.10
2008,01,28,20,38,0.00
2008,01,28,20,39,0.10
2008,01,28,20,40,0.00
2008,01,28,20,41,0.00
2008,01,28,20,42,0.00
2008,01,28,20,43,0.00
2008,01,28,20,44,0.00
2008,01,28,20,45,0.00
2008,01,28,20,46,0.00
2008,01,28,20,47,0.00
2008,01,28,20,48,0.00
2008,01,28,20,49,0.00
2008,01,28,20,50,0.00
2008,01,28,20,51,0.00
2008,01,28,20,52,0.00
2008,01,28,20,53,0.00
2008,01,28,20,54,0.00
2008,01,28,20,55,0.00
2008,01,28,20,56,-0.10
2008,01,28,20,57,-0.10
2008,01,28,20,58,-0.10
2008,01,28,20,59,-0.10
2008,01,28,21,00,-0.10
2008,01,28,21,01,0.00
2008,01,28,21,02,0.00
2008,01,28,21,03,0.00
2008,01,28,21,04,0.00
2008,01,28,21,05,0.00
2008,01,28,21,06,0.00
2008,01,28,21,07,0.00
2008,01,28,21,08,0.00
2008,01,28,21,09,0.00
2008,01,28,21,10,0.00
2008,01,28,21,11,-0.10
2008,01,28,21,12,-0.10
2008,01,28,21,13,-0.10
2008,01,28,21,14,-0.10
2008,01,28,21,15,-0.10
2008,01,28,21,16,-0.10
2008,01,28,21,17,-0.10
2008,01,28,21,18,-0.10
2008,01,28,21,19,-0.10
2008,01,28,21,20,-0.10
2008,01,28,21,21,-0.10
2008,01,28,21,22,-0.10
2008,01,28,21,23,-0.10
2008,01,28,21,24,-0.10
2008,01,28,21,25,-0.10
2008,01,28,21,26,-0.10
2008,01,28,21,27,0.00
2008,01,28,21,28,0.10
2008,01,28,21,29,0.10
2008,01,28,21,30,0.10
2008,01,28,21,31,0.10
2008,01,28,21,32,0.10
2008,01,28,21,33,0.20
2008,01,28,21,34,0.20
2008,01,28,21,35,0.20
2008,01,28,21,36,0.20
2008,01,28,21,37,0.20
2008,01,28,21,38,0.30
2008,01,28,21,39,0.20
2008,01,28,21,40,0.20
2008,01,28,21,41,0.30
2008,01,28,21,42,0.30
2008,01,28,21,43,0.30
2008,01,28,21,44,0.20
2008,01,28,21,45,0.30
2008,01,28,21,46,0.20
2008,01,28,21,47,0.20
2008,01,28,21,48,0.20
2008,01,28,21,49,0.30
2008,01,28,21,50,0.30
2008,01,28,21,51,0.30
2008,01,28,21,52,0.30
2008,01,28,21,53,0.20
2008,01,28,21,54,0.20
2008,01,28,21,55,0.20
2008,01,28,21,56,0.20
2008,01,28,21,57,0.20
2008,01,28,21,58,0.20
2008,01,28,21,59,0.20
2008,01,28,22,00,0.20
2008,01,28,22,01,0.20
2008,01,28,22,02,0.20
2008,01,28,22,03,0.20
2008,01,28,22,04,0.20
2008,01,28,22,05,0.20
2008,01,28,22,06,0.20
2008,01,28,22,07,0.20
2008,01,28,22,08,0.20
2008,01,28,22,09,0.20
2008,01,28,22,10,0.20
2008,01,28,22,11,0.20
2008,01,28,22,12,0.20
2008,01,28,22,13,0.20
2008,01,28,22,14,0.20
2008,01,28,22,15,0.20
2008,01,28,22,16,0.20
2008,01,28,22,17,0.30
2008,01,28,22,18,0.30
2008,01,28,22,19,0.30
2008,01,28,22,20,0.30
2008,01,28,22,21,0.30
2008,01,28,22,22,0.30
2008,01,28,22,23,0.30
2008,01,28,22,24,0.30
2008,01,28,22,25,0.30
2008,01,28,22,26,0.30
2008,01,28,22,27,0.30
2008,01,28,22,28,0.30
2008,01,28,22,29,0.30
2008,01,28,22,30,0.30
2008,01,28,22,31,0.30
2008,01,28,22,32,0.30
2008,01,28,22,33,0.30
2008,01,28,22,34,0.30
2008,01,28,22,35,0.30
2008,01,28,22,36,0.30
2008,01,28,22,37,0.40
2008,01,28,22,38,0.30
2008,01,28,22,39,0.30
2008,01,28,22,40,0.30
2008,01,28,22,41,0.30
2008,01,28,22,42,0.30
2008,01,28,22,43,0.30
2008,01,28,22,44,0.30
2008,01,28,22,45,0.30
2008,01,28,22,46,0.30
2008,01,28,22,47,0.30
2008,01,28,22,48,0.30
2008,01,28,22,49,0.30
2008,01,28,22,50,0.30
2008,01,28,22,51,0.30
2008,01,28,22,52,0.30
2008,01,28,22,53,0.30
2008,01,28,22,54,0.30
2008,01,28,22,55,0.30
2008,01,28,22,56,0.20
2008,01,28,22,57,0.20
2008,01,28,22,58,0.20
2008,01,28,22,59,0.20
2008,01,28,23,00,0.20
2008,01,28,23,01,0.20
2008,01,28,23,02,0.20
2008,01,28,23,03,0.20
2008,01,28,23,04,0.10
2008,01,28,23,05,0.10
2008,01,28,23,06,0.10
2008,01,28,23,07,0.10
2008,01,28,23,08,0.10
2008,01,28,23,09,0.10
2008,01,28,23,10,0.10
2008,01,28,23,11,0.10
2008,01,28,23,12,0.10
2008,01,28,23,13,0.10
2008,01,28,23,14,0.00
2008,01,28,23,15,0.00
2008,01,28,23,16,0.00
2008,01,28,23,17,0.00
2008,01,28,23,18,0.00
2008,01,28,23,19,0.00
2008,01,28,23,20,0.00
2008,01,28,23,21,0.00
2008,01,28,23,22,0.00
2008,01,28,23,23,0.00
2008,01,28,23,24,0.00
2008,01,28,23,25,0.00
2008,01,28,23,26,0.00
2008,01,28,23,27,0.00
2008,01,28,23,28,0.00
2008,01,28,23,29,0.00
2008,01,28,23,30,0.00
2008,01,28,23,31,0.00
2008,01,28,23,32,-0.10
2008,01,28,23,33,-0.10
2008,01,28,23,34,-0.10
2008,01,28,23,35,-0.10
2008,01,28,23,36,-0.10
2008,01,28,23,37,-0.10
2008,01,28,23,38,-0.10
2008,01,28,23,39,-0.10
2008,01,28,23,40,-0.10
2008,01,28,23,41,-0.10
2008,01,28,23,42,-0.10
2008,01,28,23,43,-0.10
2008,01,28,23,44,-0.10
2008,01,28,23,45,-0.10
2008,01,28,23,46,-0.10
2008,01,28,23,47,-0.10
2008,01,28,23,48,-0.10
2008,01,28,23,49,-0.10
2008,01,28,23,50,-0.10
2008,01,28,23,51,-0.10
2008,01,28,23,52,-0.10
2008,01,28,23,53,-0.10
2008,01,28,23,54,-0.10
2008,01,28,23,55,-0.10
2008,01,28,23,56,-0.10
2008,01,28,23,57,-0.10
2008,01,28,23,58,-0.10
2008,01,28,23,59,-0.10
